When you browse on this site, cookies collect data to enhance your experience and personalize the content and advertising you see.
Visit our Privacy Policy to learn more. By continuing to use the site, you agree to this use of cookies and data.
  • In Lithuania
  • List of Countries
  • For 7 days
  • Water Temperature
  • Weather Map
  • Weather Widgets
  • user-avatar
    Login

    Hourly Weather Shaki

    Today, 20 October, Sunday

    Time Temperature Precipitation Wind Pressure Humidity
    00:00 +18°C° 0 mm 1 mps 739 mmHg 79%
    01:00 +18°C° 0 mm 1 mps 739 mmHg 80%
    02:00 +16°C° 0 mm 1 mps 739 mmHg 80%
    03:00 +16°C° 0 mm 1 mps 739 mmHg 82%
    04:00 +15°C° 0 mm 1 mps 739 mmHg 82%
    05:00 +15°C° 0 mm 1 mps 739 mmHg 83%
    06:00 +15°C° 0 mm 1 mps 740 mmHg 84%
    07:00 +18°C° 0 mm 1 mps 740 mmHg 78%
    08:00 +19°C° 0 mm 1 mps 740 mmHg 73%
    09:00 +21°C° 0 mm 1 mps 740 mmHg 66%
    10:00 +21°C° 0 mm 2 mps 740 mmHg 63%
    11:00 +23°C° 0 mm 2 mps 740 mmHg 61%
    12:00 +24°C° 0 mm 2 mps 740 mmHg 58%
    13:00 +24°C° 0 mm 2 mps 740 mmHg 57%
    14:00 +24°C° 0 mm 2 mps 739 mmHg 56%
    15:00 +24°C° 0 mm 2 mps 739 mmHg 54%
    16:00 +23°C° 0 mm 1 mps 739 mmHg 59%
    17:00 +22°C° 0 mm 1 mps 740 mmHg 63%
    18:00 +20°C° 0 mm 1 mps 740 mmHg 67%
    19:00 +20°C° 0 mm 1 mps 740 mmHg 68%
    20:00 +18°C° 0 mm 2 mps 740 mmHg 69%
    21:00 +18°C° 0 mm 2 mps 740 mmHg 71%
    22:00 +17°C° 0 mm 2 mps 740 mmHg 75%
    23:00 +17°C° 0 mm 2 mps 740 mmHg 79%

    Tomorrow, 21 October, Monday

    Time Temperature Precipitation Wind Pressure Humidity
    00:00 +16°C° 0 mm 2 mps 741 mmHg 83%
    01:00 +16°C° 0 mm 2 mps 741 mmHg 83%
    02:00 +15°C° 0 mm 1 mps 741 mmHg 83%
    03:00 +15°C° 0 mm 1 mps 740 mmHg 84%
    04:00 +15°C° 0 mm 1 mps 741 mmHg 83%
    05:00 +15°C° 0 mm 1 mps 741 mmHg 82%
    06:00 +15°C° 0 mm 1 mps 741 mmHg 82%
    07:00 +16°C° 0 mm 1 mps 741 mmHg 74%
    08:00 +19°C° 0 mm 1 mps 741 mmHg 67%
    09:00 +19°C° 0 mm 2 mps 741 mmHg 59%
    10:00 +20°C° 0 mm 2 mps 741 mmHg 56%
    11:00 +21°C° 0 mm 2 mps 741 mmHg 52%
    12:00 +23°C° 0 mm 2 mps 741 mmHg 49%
    13:00 +23°C° 0 mm 2 mps 740 mmHg 49%
    14:00 +23°C° 0 mm 2 mps 740 mmHg 49%
    15:00 +24°C° 0 mm 2 mps 740 mmHg 49%
    16:00 +21°C° 0 mm 2 mps 740 mmHg 53%
    17:00 +20°C° 0 mm 2 mps 740 mmHg 57%
    18:00 +19°C° 0 mm 1 mps 740 mmHg 61%
    19:00 +18°C° 0 mm 2 mps 740 mmHg 61%
    20:00 +18°C° 0 mm 2 mps 740 mmHg 61%
    21:00 +18°C° 0 mm 2 mps 740 mmHg 61%
    22:00 +17°C° 0 mm 2 mps 740 mmHg 64%
    23:00 +16°C° 0 mm 2 mps 740 mmHg 67%

    Day after tomorrow, 22 October, Tuesday

    Time Temperature Precipitation Wind Pressure Humidity
    00:00 +15°C° 0 mm 2 mps 740 mmHg 70%
    01:00 +14°C° 0 mm 2 mps 740 mmHg 71%
    02:00 +14°C° 0 mm 1 mps 739 mmHg 72%
    03:00 +14°C° 0 mm 1 mps 739 mmHg 72%
    04:00 +13°C° 0 mm 1 mps 739 mmHg 73%
    05:00 +12°C° 0 mm 0 mps 739 mmHg 74%
    06:00 +12°C° 0 mm 0 mps 739 mmHg 75%
    07:00 +13°C° 0 mm 0 mps 739 mmHg 69%
    08:00 +16°C° 0 mm 1 mps 739 mmHg 63%
    09:00 +19°C° 0 mm 1 mps 739 mmHg 57%
    10:00 +20°C° 0 mm 1 mps 739 mmHg 54%
    11:00 +20°C° 0 mm 2 mps 739 mmHg 51%
    12:00 +21°C° 0 mm 2 mps 739 mmHg 48%
    13:00 +21°C° 0 mm 2 mps 739 mmHg 48%
    14:00 +21°C° 0 mm 2 mps 738 mmHg 47%
    15:00 +21°C° 0 mm 2 mps 738 mmHg 47%
    16:00 +20°C° 0 mm 2 mps 738 mmHg 52%
    17:00 +19°C° 0 mm 1 mps 738 mmHg 57%
    18:00 +16°C° 0 mm 1 mps 738 mmHg 63%
    19:00 +16°C° 0 mm 1 mps 739 mmHg 64%
    20:00 +15°C° 0 mm 1 mps 739 mmHg 65%
    21:00 +15°C° 0 mm 1 mps 739 mmHg 66%
    22:00 +15°C° 0 mm 1 mps 739 mmHg 68%
    23:00 +14°C° 0 mm 1 mps 739 mmHg 69%

    23 October, Wednesday

    Time Temperature Precipitation Wind Pressure Humidity
    00:00 +14°C° 0 mm 1 mps 739 mmHg 70%
    01:00 +14°C° 0 mm 1 mps 739 mmHg 73%
    02:00 +13°C° 0 mm 1 mps 739 mmHg 76%
    03:00 +13°C° 0 mm 1 mps 739 mmHg 78%
    04:00 +13°C° 0 mm 1 mps 739 mmHg 80%
    05:00 +12°C° 0 mm 1 mps 739 mmHg 81%
    06:00 +12°C° 0 mm 1 mps 739 mmHg 82%
    07:00 +14°C° 0 mm 1 mps 739 mmHg 77%
    08:00 +15°C° 0 mm 2 mps 739 mmHg 73%
    09:00 +17°C° 0 mm 2 mps 740 mmHg 68%
    10:00 +18°C° 0 mm 2 mps 739 mmHg 64%
    11:00 +19°C° 0 mm 2 mps 739 mmHg 61%
    12:00 +19°C° 0 mm 2 mps 739 mmHg 58%
    13:00 +20°C° 0 mm 2 mps 739 mmHg 56%
    14:00 +20°C° 0 mm 2 mps 739 mmHg 55%
    15:00 +21°C° 0 mm 1 mps 738 mmHg 53%
    16:00 +19°C° 0 mm 2 mps 739 mmHg 58%
    17:00 +17°C° 0 mm 2 mps 739 mmHg 63%
    18:00 +16°C° 0 mm 2 mps 739 mmHg 68%
    19:00 +16°C° 0 mm 2 mps 739 mmHg 69%
    20:00 +16°C° 0 mm 1 mps 739 mmHg 70%
    21:00 +15°C° 0 mm 1 mps 740 mmHg 71%
    22:00 +15°C° 0 mm 1 mps 740 mmHg 73%
    23:00 +15°C° 0 mm 2 mps 739 mmHg 75%

    24 October, Thursday

    Time Temperature Precipitation Wind Pressure Humidity
    00:00 +15°C° 0 mm 2 mps 739 mmHg 76%
    01:00 +14°C° 0 mm 2 mps 739 mmHg 79%
    02:00 +14°C° 0 mm 1 mps 739 mmHg 81%
    03:00 +13°C° 0 mm 1 mps 739 mmHg 83%
    04:00 +13°C° 0 mm 1 mps 739 mmHg 84%
    05:00 +12°C° 0 mm 0 mps 739 mmHg 85%
    06:00 +11°C° 0 mm 0 mps 739 mmHg 86%
    07:00 +14°C° 0 mm 1 mps 739 mmHg 80%
    08:00 +15°C° 0 mm 1 mps 739 mmHg 75%
    09:00 +18°C° 0 mm 1 mps 739 mmHg 69%
    10:00 +19°C° 0 mm 1 mps 739 mmHg 66%
    11:00 +19°C° 0 mm 2 mps 738 mmHg 62%
    12:00 +20°C° 0 mm 2 mps 738 mmHg 58%
    13:00 +20°C° 0 mm 2 mps 738 mmHg 57%
    14:00 +20°C° 0 mm 2 mps 738 mmHg 57%
    15:00 +21°C° 0 mm 1 mps 737 mmHg 56%
    16:00 +20°C° 0 mm 1 mps 737 mmHg 61%
    17:00 +19°C° 0 mm 1 mps 737 mmHg 66%
    18:00 +15°C° 0 mm 0 mps 737 mmHg 71%
    19:00 +16°C° 0 mm 1 mps 738 mmHg 72%
    20:00 +16°C° 0 mm 1 mps 738 mmHg 72%
    21:00 +16°C° 0 mm 1 mps 738 mmHg 73%
    22:00 +16°C° 0 mm 1 mps 738 mmHg 75%
    23:00 +16°C° 0 mm 1 mps 737 mmHg 77%

    25 October, Friday

    Time Temperature Precipitation Wind Pressure Humidity
    00:00 +15°C° 0 mm 1 mps 737 mmHg 78%
    01:00 +15°C° 0 mm 1 mps 737 mmHg 80%
    02:00 +14°C° 0 mm 1 mps 737 mmHg 81%
    03:00 +13°C° 0 mm 0 mps 737 mmHg 83%
    04:00 +13°C° 0 mm 0 mps 737 mmHg 83%
    05:00 +13°C° 0 mm 0 mps 737 mmHg 83%
    06:00 +13°C° 0 mm 1 mps 737 mmHg 83%
    07:00 +15°C° 0 mm 1 mps 737 mmHg 75%
    08:00 +18°C° 0 mm 1 mps 737 mmHg 67%
    09:00 +20°C° 0 mm 1 mps 737 mmHg 60%
    10:00 +21°C° 0 mm 1 mps 737 mmHg 57%
    11:00 +22°C° 0 mm 1 mps 737 mmHg 54%
    12:00 +23°C° 0 mm 2 mps 736 mmHg 51%
    13:00 +21°C° 0 mm 2 mps 736 mmHg 53%
    14:00 +21°C° 0 mm 2 mps 736 mmHg 55%
    15:00 +21°C° 0 mm 2 mps 736 mmHg 57%
    16:00 +20°C° 0 mm 2 mps 736 mmHg 64%
    17:00 +19°C° 0 mm 1 mps 736 mmHg 72%
    18:00 +18°C° 0 mm 1 mps 736 mmHg 79%
    19:00 +18°C° 0 mm 1 mps 736 mmHg 79%
    20:00 +18°C° 0 mm 1 mps 736 mmHg 79%
    21:00 +18°C° 0 mm 1 mps 736 mmHg 79%
    22:00 +18°C° 0 mm 1 mps 736 mmHg 79%
    23:00 +18°C° 0 mm 1 mps 736 mmHg 79%
    Show more